北斗三号 I2S (BEIDOU-3S IGSO-2S)

导读

BEIDOU-3S IGSO-2S 是中国北斗三号卫星导航系统中的一颗倾斜地球同步轨道(IGSO)卫星,主要用于增强系统在全球范围内的定位、导航和授时能力。该卫星采用先进的导航技术,具备高精度、高稳定性和抗干扰能力,为亚太及全球用户提供更优质的服务。其发射进一步完善了北斗系统的星座布局,提升了系统的覆盖范围与可靠性,标志着中国在自主卫星导航领域的重要进展。

基本信息
目录编号:
40938
目录名称:
BD-20
国际标识:
2015-053A
轨道中心:
EARTH
卫星名称:
北斗三号 I2S
卫星全名:
北斗三号 I2S (BEIDOU-3S IGSO-2S)
卫星状态:
在轨 (已飞行3911 天)
发射日期:
2015-09-29 UTC
国别 :
中国 (CN)
星等 :
--
轨道信息
数据来源 国际轨道数据 AOE轨道数据
星历时间 2026-06-13T01:52:22+0800
1天前
查看轨道信息
2026-06-12T02:00:00+0800
2天前
查看轨道信息
半长轴 42167.924km 42167.84km
偏心率 0.0065649 0.0065311
轨道倾角 49.229° 49.230°
近地点辐角 191.968° 191.852°
升交点赤经 258.837° 258.848°
平近点角 173.765° 174.851°
近地点 35512.958km 35514.3km
远地点 36066.616km 36065.106km
周期 1436.260分钟 1436.256分钟
每日圈数 1.002604 1.002607
详细信息
卫星平台:
东方红三号B
平衡模式:
三轴稳定
制造商(研发单位):
中国航天科技集团有限公司
制造商所在国:
中国
使用方式:
暂无
卫星简介
北斗卫星导航系统是中国着眼于国家安全和经济社会发展需要,自主建设运行的全球卫星导航系统,是为全球用户提供全天候、全天时、高精度的定位、导航和授时服务的国家重要时空基础设施。该卫星仍在工作。
2D轨道图
3D轨道图
轨道高度分析图
轨道倾角分析图
轨道综合分析图
查看轨道综合分析图